Weather History for KJAS - March, 2013

Change the Weather History Date:

Monday, March 18, 2013

  Actual Average (KLFK) Record (KLFK)
Temperature  
Mean Temperature 76 °F 60 °F  
Max Temperature 87 °F 72 °F 88 °F (1908)
Min Temperature 65 °F 48 °F 29 °F (1960)
Degree Days  
Heating Degree Days 0 6  
Month to date heating degree days 144  
Since 1 July heating degree days 1778  
Cooling Degree Days 11 1  
Month to date cooling degree days 18  
Year to date cooling degree days 37  
Growing Degree Days 26 (Base 50)    
Moisture  
Dew Point 64 °F    
Average Humidity 71    
Maximum Humidity 95    
Minimum Humidity 41    
Precipitation  
Precipitation 0.00 in 0.12 in 1.95 in (1911)
Month to date precipitation 2.27  
Year to date precipitation 10.32  
Snow  
Snow 0.00 in - - ()
Month to date snowfall  
Since 1 July snowfall  
Snow Depth -    
Sea Level Pressure  
Sea Level Pressure 29.82 in    
Wind  
Wind Speed 6 mph (SSW)    
Max Wind Speed 15 mph    
Max Gust Speed 21 mph    
Visibility 8 miles    
Events      
T = Trace of Precipitation, MM = Missing Value Source: NWS Daily Summary

Daily Weather History Graph

Daily Weather History Graph

Search for Another Location

Airport or City:

Trip Planner

Search our weather history database for the weather conditions in past years. The results will help you decide how hot, cold, wet, or windy it might be!

Date:

Astronomy

Mar. 18, 2013 Rise Set
Actual Time 7:22 AM CDT 7:26 PM CDT
Civil Twilight 6:58 AM CDT 7:50 PM CDT
Nautical Twilight 6:29 AM CDT 8:18 PM CDT
Astronomical Twilight 6:01 AM CDT 8:46 PM CDT
Moon 11:44 AM CDT (3/18) 1:04 AM CDT (3/18)
Length of Visible Light 12h 52m
Length of Day
12h 04m
Waxing Crescent, 41% of the Moon is Illuminated
Mar 18
Waxing Crescent
Mar 19
First Quarter
Mar 27
Full
Apr 2
Last Quarter
Apr 10
New

Hourly Weather History & Observations

Time (CDT) Temp. Heat Index Dew Point Humidity Pressure Visibility Wind Dir Wind Speed Gust Speed Precip Events Conditions
12:15 AM 66.7 °F - 64.6 °F 93% 29.81 in 7.0 mi South 6.9 mph - N/A   Overcast
12:35 AM 66.9 °F - 64.6 °F 92% 29.80 in 7.0 mi South 6.9 mph - N/A   Overcast
12:55 AM 67.3 °F - 64.4 °F 90% 29.79 in 7.0 mi SSE 8.1 mph - N/A   Mostly Cloudy
1:15 AM 67.3 °F - 64.4 °F 90% 29.79 in 7.0 mi South 6.9 mph - N/A   Scattered Clouds
1:35 AM 67.1 °F - 64.2 °F 90% 29.78 in 7.0 mi South 6.9 mph - N/A   Scattered Clouds
1:55 AM 67.1 °F - 64.4 °F 91% 29.80 in 7.0 mi SSW 4.6 mph - N/A   Mostly Cloudy
2:15 AM 67.1 °F - 64.4 °F 91% 29.80 in 7.0 mi SSE 3.5 mph - N/A   Overcast
2:35 AM 66.7 °F - 64.4 °F 92% 29.79 in 7.0 mi South 4.6 mph - N/A   Overcast
2:55 AM 66.7 °F - 64.4 °F 92% 29.79 in 7.0 mi South 4.6 mph - N/A   Mostly Cloudy
3:15 AM 67.1 °F - 64.4 °F 91% 29.79 in 7.0 mi SSE 3.5 mph - N/A   Mostly Cloudy
3:35 AM 66.6 °F - 64.2 °F 92% 29.78 in 7.0 mi Calm Calm - N/A   Mostly Cloudy
3:55 AM 66.2 °F - 64.0 °F 93% 29.77 in 5.0 mi SSE 3.5 mph - N/A   Mostly Cloudy
4:15 AM 66.2 °F - 64.2 °F 93% 29.78 in 7.0 mi Calm Calm - N/A   Overcast
4:35 AM 66.4 °F - 64.4 °F 93% 29.79 in 7.0 mi Calm Calm - N/A   Overcast
4:55 AM 66.2 °F - 64.2 °F 93% 29.80 in 5.0 mi Calm Calm - N/A   Overcast
5:15 AM 65.5 °F - 63.9 °F 94% 29.80 in 4.0 mi Calm Calm - N/A   Overcast
5:35 AM 65.7 °F - 64.2 °F 95% 29.81 in 5.0 mi SSE 4.6 mph - N/A   Overcast
5:55 AM 66.4 °F - 64.4 °F 93% 29.81 in 7.0 mi SSE 4.6 mph - N/A   Overcast
6:15 AM 66.6 °F - 64.6 °F 93% 29.83 in 7.0 mi Calm Calm - N/A   Overcast
6:35 AM 66.7 °F - 64.8 °F 93% 29.83 in 5.0 mi South 3.5 mph - N/A   Overcast
6:55 AM 66.4 °F - 64.6 °F 94% 29.83 in 5.0 mi South 6.9 mph - N/A   Overcast
7:15 AM 66.6 °F - 64.6 °F 93% 29.83 in 7.0 mi South 5.8 mph - N/A   Overcast
7:35 AM 66.6 °F - 64.6 °F 93% 29.83 in 5.0 mi South 6.9 mph - N/A   Mostly Cloudy
7:55 AM 66.4 °F - 64.4 °F 93% 29.83 in 4.0 mi South 4.6 mph - N/A   Scattered Clouds
8:15 AM 66.6 °F - 64.6 °F 93% 29.84 in 5.0 mi South 5.8 mph - N/A   Scattered Clouds
8:35 AM 67.1 °F - 64.9 °F 93% 29.84 in 5.0 mi South 5.8 mph - N/A   Mostly Cloudy
8:55 AM 68.0 °F - 65.5 °F 92% 29.84 in 5.0 mi South 5.8 mph - N/A   Overcast
9:15 AM 69.1 °F - 66.2 °F 91% 29.86 in 7.0 mi SW 6.9 mph - N/A   Mostly Cloudy
9:35 AM 70.7 °F - 66.4 °F 86% 29.84 in 7.0 mi South 10.4 mph - N/A   Scattered Clouds
9:55 AM 72.7 °F - 66.6 °F 81% 29.85 in 10.0 mi South 8.1 mph - N/A   Scattered Clouds
10:15 AM 74.5 °F - 66.4 °F 76% 29.85 in 10.0 mi SSW 10.4 mph - N/A   Scattered Clouds
10:35 AM 75.7 °F - 66.0 °F 72% 29.84 in 10.0 mi South 11.5 mph 18.4 mph N/A   Scattered Clouds
10:55 AM 76.8 °F - 65.3 °F 67% 29.84 in 10.0 mi South 12.7 mph 19.6 mph N/A   Scattered Clouds
11:15 AM 77.9 °F - 64.9 °F 64% 29.84 in 10.0 mi South 15.0 mph 20.7 mph N/A   Clear
11:35 AM 79.3 °F - 65.1 °F 62% 29.84 in 10.0 mi SSW 13.8 mph 18.4 mph N/A   Scattered Clouds
11:55 AM 80.2 °F 82.0 °F 64.9 °F 59% 29.83 in 10.0 mi SSW 13.8 mph - N/A   Scattered Clouds
12:15 PM 80.8 °F 82.5 °F 64.6 °F 58% 29.83 in 10.0 mi SSW 15.0 mph 19.6 mph N/A   Clear
12:35 PM 81.5 °F 83.1 °F 64.6 °F 56% 29.83 in 10.0 mi SSW 13.8 mph 18.4 mph N/A   Clear
12:55 PM 82.0 °F 83.6 °F 64.6 °F 55% 29.82 in 10.0 mi SSW 6.9 mph 18.4 mph N/A   Clear
1:15 PM 82.4 °F 84.1 °F 64.6 °F 55% 29.82 in 10.0 mi SW 5.8 mph 18.4 mph N/A   Clear
1:35 PM 82.8 °F 84.3 °F 64.6 °F 54% 29.83 in 10.0 mi SW 9.2 mph - N/A   Scattered Clouds
1:55 PM 83.3 °F 84.8 °F 64.8 °F 53% 29.81 in 10.0 mi SSW 8.1 mph - N/A   Mostly Cloudy
2:15 PM 83.7 °F 85.3 °F 64.8 °F 53% 29.80 in 10.0 mi SSW 8.1 mph - N/A   Mostly Cloudy
2:35 PM 84.6 °F 86.1 °F 64.4 °F 51% 29.79 in 10.0 mi SSW 11.5 mph 18.4 mph N/A   Scattered Clouds
2:55 PM 85.3 °F 86.4 °F 63.5 °F 48% 29.78 in 10.0 mi SW 9.2 mph - N/A   Scattered Clouds
3:15 PM 85.8 °F 86.6 °F 63.1 °F 46% 29.77 in 10.0 mi SW 8.1 mph - N/A   Scattered Clouds
3:35 PM 86.5 °F 87.3 °F 62.6 °F 45% 29.77 in 10.0 mi WSW 9.2 mph - N/A   Scattered Clouds
3:55 PM 86.2 °F 86.6 °F 62.1 °F 44% 29.77 in 10.0 mi WSW 6.9 mph - N/A   Scattered Clouds
4:15 PM 86.9 °F 87.2 °F 61.9 °F 43% 29.77 in 10.0 mi WSW 8.1 mph - N/A   Clear
4:35 PM 87.1 °F 87.0 °F 61.0 °F 41% 29.77 in 10.0 mi SW 9.2 mph - N/A   Clear
4:55 PM 86.4 °F 86.5 °F 61.2 °F 43% 29.77 in 10.0 mi Calm Calm - N/A   Clear
5:15 PM 86.2 °F 86.3 °F 61.2 °F 43% 29.77 in 10.0 mi NW 4.6 mph - N/A   Mostly Cloudy
5:35 PM 86.7 °F 86.5 °F 60.4 °F 41% 29.77 in 10.0 mi Calm Calm - N/A   Mostly Cloudy
5:55 PM 86.5 °F 86.5 °F 61.2 °F 42% 29.77 in 10.0 mi North 9.2 mph - N/A   Mostly Cloudy
6:15 PM 85.3 °F 85.7 °F 61.7 °F 45% 29.78 in 10.0 mi NNW 5.8 mph - N/A   Scattered Clouds
6:35 PM 84.0 °F 84.5 °F 62.1 °F 47% 29.79 in 10.0 mi NNW 4.6 mph - N/A   Scattered Clouds
6:55 PM 82.6 °F 83.4 °F 62.1 °F 50% 29.80 in 10.0 mi NNW 4.6 mph - N/A   Scattered Clouds
7:15 PM 80.6 °F 81.7 °F 62.1 °F 53% 29.81 in 10.0 mi NNW 5.8 mph - N/A   Clear
7:35 PM 78.8 °F - 62.1 °F 56% 29.82 in 10.0 mi NNW 4.6 mph - N/A   Clear
7:55 PM 76.8 °F - 62.4 °F 61% 29.83 in 10.0 mi North 3.5 mph - N/A   Clear
8:15 PM 75.4 °F - 63.0 °F 65% 29.84 in 10.0 mi Calm Calm - N/A   Scattered Clouds
8:35 PM 74.3 °F - 63.5 °F 69% 29.85 in 10.0 mi Calm Calm - N/A   Mostly Cloudy
8:55 PM 75.6 °F - 63.3 °F 66% 29.87 in 10.0 mi NNW 11.5 mph - N/A   Mostly Cloudy
9:15 PM 75.4 °F - 63.1 °F 66% 29.88 in 10.0 mi North 11.5 mph 17.3 mph N/A   Scattered Clouds
9:35 PM 74.7 °F - 62.6 °F 66% 29.90 in 10.0 mi North 11.5 mph 17.3 mph N/A   Clear
9:55 PM 73.9 °F - 61.7 °F 65% 29.91 in 10.0 mi North 12.7 mph 19.6 mph N/A   Clear
10:15 PM 73.6 °F - 60.6 °F 64% 29.92 in 10.0 mi North 13.8 mph 20.7 mph N/A   Clear
10:55 PM 72.0 °F - 59.0 °F 64% 29.95 in 10.0 mi North 6.9 mph - N/A   Clear
11:15 PM 71.2 °F - 58.8 °F 65% 29.96 in 10.0 mi NNE 10.4 mph - N/A   Clear
11:35 PM 70.7 °F - 58.5 °F 65% 29.96 in 10.0 mi NNE 9.2 mph 18.4 mph N/A   Clear
11:55 PM 69.6 °F - 57.7 °F 66% 29.96 in 10.0 mi NE 11.5 mph - N/A   Clear